Location: Park Creek Village Mobile Home Park
(38.2885°N, 122.4714°W)
Time: 17:32:52
(UTC+00:00)

Cosmos 332 Rocket - Pass Details

Date: 14 December 2019
Orbit: 683 x 703 km, 74.0° (Epoch: 20 January)

Event Time Altitude Azimuth Distance (km) Brightness Sun altitude
Rises 13:19:08 0° 189° (S) 3,075 7.2 -22.7°
Reaches altitude 10° 13:21:27 10° 186° (S) 2,161 6.4 -22.3°
Maximum altitude 13:26:17 65° 105° (ESE) 772 4.2 -21.3°
Drops below altitude 10° 13:31:08 10° 24° (NNE) 2,172 6.5 -20.4°
Sets 13:33:28 0° 22° (NNE) 3,092 7.2 -20.0°
